Time,TemperatureF,DewpointF,PressureIn,WindDirection,WindDirectionDegrees,WindSpeedMPH,WindSpeedGustMPH,Humidity,HourlyPrecipIn,Conditions,Clouds,dailyrainin,SoftwareType,DateUTC
2013-09-02 00:00:00,78.0,69.0,-100.00,NE,53,6.0,-999.0,73,0.00,,,0.00,,2013-09-02 05:00:00,
2013-09-02 00:44:00,78.0,69.0,-100.00,NE,53,6.0,-999.0,73,0.00,,,0.00,,2013-09-02 05:44:00,
2013-09-02 00:52:00,78.0,69.0,-100.00,NE,53,6.0,-999.0,73,0.00,,,0.00,,2013-09-02 05:52:00,
2013-09-02 01:00:00,78.0,69.0,-100.00,SSE,162,5.0,-999.0,73,0.00,,,0.00,,2013-09-02 06:00:00,
2013-09-02 01:43:00,78.0,69.0,-100.00,SSE,162,5.0,-999.0,73,0.00,,,0.00,,2013-09-02 06:43:00,
2013-09-02 01:52:00,78.0,69.0,-100.00,SSE,162,5.0,-999.0,73,0.00,,,0.00,,2013-09-02 06:52:00,
2013-09-02 02:00:00,78.0,69.0,-100.00,SSW,202,3.0,-999.0,74,0.00,,,0.00,,2013-09-02 07:00:00,
2013-09-02 02:42:00,78.0,69.0,-100.00,SSW,202,3.0,-999.0,74,0.00,,,0.00,,2013-09-02 07:42:00,
2013-09-02 02:52:00,78.0,69.0,-100.00,SSW,202,3.0,-999.0,74,0.00,,,0.00,,2013-09-02 07:52:00,
2013-09-02 03:00:00,79.0,71.0,-100.00,North,5,5.0,-999.0,75,0.00,,,0.00,,2013-09-02 08:00:00,
2013-09-02 03:42:00,79.0,71.0,-100.00,North,5,5.0,-999.0,75,0.00,,,0.00,,2013-09-02 08:42:00,
2013-09-02 03:52:00,79.0,71.0,-100.00,North,5,5.0,-999.0,75,0.00,,,0.00,,2013-09-02 08:52:00,
2013-09-02 04:00:00,79.0,72.0,-100.00,West,274,6.0,-999.0,80,0.00,,,0.00,,2013-09-02 09:00:00,
2013-09-02 04:44:00,79.0,72.0,-100.00,West,274,6.0,-999.0,80,0.00,,,0.00,,2013-09-02 09:44:00,
2013-09-02 04:53:00,79.0,72.0,-100.00,West,274,6.0,-999.0,80,0.00,,,0.00,,2013-09-02 09:53:00,
2013-09-02 05:00:00,74.0,71.0,-100.00,ESE,109,8.0,-999.0,91,0.16,,,0.16,,2013-09-02 10:00:00,
2013-09-02 05:42:00,74.0,71.0,-100.00,ESE,109,8.0,-999.0,91,0.16,,,0.16,,2013-09-02 10:42:00,
2013-09-02 05:53:00,74.0,71.0,-100.00,ESE,109,8.0,-999.0,91,0.16,,,0.16,,2013-09-02 10:53:00,
2013-09-02 06:00:00,73.0,72.0,-100.00,SSE,167,7.0,-999.0,95,0.00,,,0.16,,2013-09-02 11:00:00,
2013-09-02 06:42:00,73.0,72.0,-100.00,SSE,167,7.0,-999.0,95,0.00,,,0.16,,2013-09-02 11:42:00,
2013-09-02 06:52:00,73.0,72.0,-100.00,SSE,167,7.0,-999.0,95,0.00,,,0.16,,2013-09-02 11:52:00,
2013-09-02 07:00:00,74.0,73.0,-100.00,NE,37,2.0,-999.0,96,0.00,,,0.16,,2013-09-02 12:00:00,
2013-09-02 07:43:00,74.0,73.0,-100.00,NE,37,2.0,-999.0,96,0.00,,,0.16,,2013-09-02 12:43:00,
2013-09-02 07:52:00,74.0,73.0,-100.00,NE,37,2.0,-999.0,96,0.00,,,0.16,,2013-09-02 12:52:00,
2013-09-02 08:00:00,75.0,74.0,-100.00,North,5,5.0,-999.0,96,0.00,,,0.16,,2013-09-02 13:00:00,
2013-09-02 08:42:00,75.0,74.0,-100.00,North,5,5.0,-999.0,96,0.00,,,0.16,,2013-09-02 13:42:00,
2013-09-02 08:52:00,75.0,74.0,-100.00,North,5,5.0,-999.0,96,0.00,,,0.16,,2013-09-02 13:52:00,
2013-09-02 09:00:00,76.0,75.0,-100.00,NNW,343,4.0,-999.0,94,0.00,,,0.16,,2013-09-02 14:00:00,
2013-09-02 09:43:00,76.0,75.0,-100.00,NNW,343,4.0,-999.0,94,0.00,,,0.16,,2013-09-02 14:43:00,
2013-09-02 09:52:00,76.0,75.0,-100.00,NNW,343,4.0,-999.0,94,0.00,,,0.16,,2013-09-02 14:52:00,
2013-09-02 10:00:00,81.0,73.0,-100.00,WSW,251,8.0,-999.0,78,0.00,,,0.16,,2013-09-02 15:00:00,
2013-09-02 10:45:00,81.0,73.0,-100.00,WSW,251,8.0,-999.0,78,0.00,,,0.16,,2013-09-02 15:45:00,
2013-09-02 10:55:00,81.0,73.0,-100.00,WSW,251,8.0,-999.0,78,0.00,,,0.16,,2013-09-02 15:55:00,
2013-09-02 11:00:00,85.0,72.0,-100.00,WSW,243,7.0,-999.0,64,0.00,,,0.16,,2013-09-02 16:00:00,
2013-09-02 11:43:00,85.0,72.0,-100.00,WSW,243,7.0,-999.0,64,0.00,,,0.16,,2013-09-02 16:43:00,
2013-09-02 11:53:00,85.0,72.0,-100.00,WSW,243,7.0,-999.0,64,0.00,,,0.16,,2013-09-02 16:53:00,
2013-09-02 12:00:00,87.0,72.0,-100.00,WNW,291,6.0,-999.0,61,0.00,,,0.16,,2013-09-02 17:00:00,
2013-09-02 12:45:00,87.0,72.0,-100.00,WNW,291,6.0,-999.0,61,0.00,,,0.16,,2013-09-02 17:45:00,
2013-09-02 12:52:00,87.0,72.0,-100.00,WNW,291,6.0,-999.0,61,0.00,,,0.16,,2013-09-02 17:52:00,
2013-09-02 13:00:00,89.0,70.0,-100.00,West,265,3.0,-999.0,54,0.00,,,0.16,,2013-09-02 18:00:00,
2013-09-02 13:42:00,89.0,70.0,-100.00,West,265,3.0,-999.0,54,0.00,,,0.16,,2013-09-02 18:42:00,
2013-09-02 13:52:00,89.0,70.0,-100.00,West,265,3.0,-999.0,54,0.00,,,0.16,,2013-09-02 18:52:00,
2013-09-02 14:00:00,92.0,71.0,-100.00,WSW,242,4.0,-999.0,51,0.00,,,0.16,,2013-09-02 19:00:00,
2013-09-02 14:42:00,92.0,71.0,-100.00,WSW,242,4.0,-999.0,51,0.00,,,0.16,,2013-09-02 19:42:00,
2013-09-02 14:52:00,92.0,71.0,-100.00,WSW,242,4.0,-999.0,51,0.00,,,0.16,,2013-09-02 19:52:00,
2013-09-02 15:00:00,93.0,70.0,-100.00,SW,227,6.0,-999.0,47,0.00,,,0.16,,2013-09-02 20:00:00,
2013-09-02 15:42:00,93.0,70.0,-100.00,SW,227,6.0,-999.0,47,0.00,,,0.16,,2013-09-02 20:42:00,
2013-09-02 15:52:00,93.0,70.0,-100.00,SW,227,6.0,-999.0,47,0.00,,,0.16,,2013-09-02 20:52:00,
2013-09-02 16:00:00,88.0,72.0,-100.00,NNE,21,6.0,-999.0,59,0.00,,,0.16,,2013-09-02 21:00:00,
2013-09-02 16:44:00,88.0,72.0,-100.00,NNE,21,6.0,-999.0,59,0.00,,,0.16,,2013-09-02 21:44:00,
2013-09-02 16:55:00,88.0,72.0,-100.00,NNE,21,6.0,-999.0,59,0.00,,,0.16,,2013-09-02 21:55:00,
2013-09-02 17:00:00,90.0,73.0,-100.00,North,5,2.0,-999.0,57,0.00,,,0.16,,2013-09-02 22:00:00,
2013-09-02 17:44:00,90.0,73.0,-100.00,North,5,2.0,-999.0,57,0.00,,,0.16,,2013-09-02 22:44:00,
2013-09-02 17:54:00,90.0,73.0,-100.00,North,5,2.0,-999.0,57,0.00,,,0.16,,2013-09-02 22:54:00,
2013-09-02 18:00:00,93.0,71.0,-100.00,North,358,1.0,-999.0,50,0.00,,,0.16,,2013-09-02 23:00:00,
2013-09-02 18:42:00,93.0,71.0,-100.00,North,358,1.0,-999.0,50,0.00,,,0.16,,2013-09-02 23:42:00,
2013-09-02 18:53:00,93.0,71.0,-100.00,North,358,1.0,-999.0,50,0.00,,,0.16,,2013-09-02 23:53:00,
2013-09-02 19:00:00,92.0,71.0,-100.00,North,8,8.0,-999.0,51,0.00,,,0.16,,2013-09-03 00:00:00,
2013-09-02 19:42:00,92.0,71.0,-100.00,North,8,8.0,-999.0,51,0.00,,,0.16,,2013-09-03 00:42:00,
2013-09-02 19:52:00,92.0,71.0,-100.00,North,8,8.0,-999.0,51,0.00,,,0.16,,2013-09-03 00:52:00,
2013-09-02 20:00:00,89.0,70.0,-100.00,NNE,28,6.0,-999.0,53,0.00,,,0.16,,2013-09-03 01:00:00,
2013-09-02 20:42:00,89.0,70.0,-100.00,NNE,28,6.0,-999.0,53,0.00,,,0.16,,2013-09-03 01:42:00,
2013-09-02 20:52:00,89.0,70.0,-100.00,NNE,28,6.0,-999.0,53,0.00,,,0.16,,2013-09-03 01:52:00,
2013-09-02 21:00:00,87.0,69.0,-100.00,NNE,13,9.0,-999.0,56,0.00,,,0.16,,2013-09-03 02:00:00,
2013-09-02 21:42:00,87.0,69.0,-100.00,NNE,13,9.0,-999.0,56,0.00,,,0.16,,2013-09-03 02:42:00,
2013-09-02 21:52:00,87.0,69.0,-100.00,NNE,13,9.0,-999.0,56,0.00,,,0.16,,2013-09-03 02:52:00,
2013-09-02 22:00:00,84.0,67.0,-100.00,North,7,6.0,-999.0,57,0.00,,,0.16,,2013-09-03 03:00:00,
2013-09-02 22:45:00,84.0,67.0,-100.00,North,7,6.0,-999.0,57,0.00,,,0.16,,2013-09-03 03:45:00,
2013-09-02 22:55:00,84.0,67.0,-100.00,North,7,6.0,-999.0,57,0.00,,,0.16,,2013-09-03 03:55:00,
2013-09-02 23:00:00,83.0,65.0,-100.00,North,357,7.0,-999.0,56,0.00,,,0.16,,2013-09-03 04:00:00,
2013-09-02 23:44:00,83.0,65.0,-100.00,North,357,7.0,-999.0,56,0.00,,,0.16,,2013-09-03 04:44:00,
2013-09-02 23:53:00,83.0,65.0,-100.00,North,357,7.0,-999.0,56,0.00,,,0.16,,2013-09-03 04:53:00,